• In Hungary
  • List of Countries
  • For 7 days
  • Water Temperature
  • Satellite Maps
  • Weather Map
  • News
  • Weather Widgets
  • user-avatar
    Login

    Hourly Weather Stow

    Today, 23 September, Sunday

    Time Temperature Precipitation Wind Pressure Humidity
    00:00 +11°C° 0 mm 1 mps 737 mmHg 87%
    01:00 +11°C° 0 mm 1 mps 736 mmHg 89%
    02:00 +11°C° 0 mm 1 mps 736 mmHg 90%
    03:00 +10°C° 0 mm 1 mps 736 mmHg 90%
    04:00 +10°C° 0 mm 1 mps 736 mmHg 90%
    05:00 +10°C° 0 mm 1 mps 736 mmHg 89%
    06:00 +10°C° 0 mm 2 mps 736 mmHg 89%
    07:00 +10°C° 0 mm 2 mps 736 mmHg 88%
    08:00 +13°C° 0 mm 2 mps 736 mmHg 82%
    09:00 +14°C° 0 mm 2 mps 737 mmHg 77%
    10:00 +16°C° 0 mm 2 mps 737 mmHg 72%
    11:00 +18°C° 0 mm 2 mps 737 mmHg 67%
    12:00 +19°C° 0 mm 2 mps 737 mmHg 61%
    13:00 +21°C° 0 mm 2 mps 737 mmHg 56%
    14:00 +21°C° 0 mm 2 mps 736 mmHg 59%
    15:00 +21°C° 0 mm 2 mps 736 mmHg 61%
    16:00 +21°C° 0 mm 2 mps 736 mmHg 64%
    17:00 +19°C° 0 mm 2 mps 736 mmHg 69%
    18:00 +18°C° 0 mm 2 mps 736 mmHg 75%
    19:00 +16°C° 0 mm 2 mps 736 mmHg 80%
    20:00 +15°C° 0 mm 2 mps 736 mmHg 83%
    21:00 +15°C° 0 mm 2 mps 736 mmHg 85%
    22:00 +13°C° 0 mm 3 mps 736 mmHg 88%
    23:00 +13°C° 0 mm 3 mps 736 mmHg 90%

    Tomorrow, 24 September, Monday

    Time Temperature Precipitation Wind Pressure Humidity
    00:00 +14°C° 0 mm 2 mps 736 mmHg 92%
    01:00 +13°C° 0 mm 2 mps 736 mmHg 94%
    02:00 +12°C° 0 mm 3 mps 736 mmHg 94%
    03:00 +12°C° 0 mm 3 mps 736 mmHg 94%
    04:00 +11°C° 0 mm 3 mps 736 mmHg 95%
    05:00 +11°C° 0 mm 3 mps 736 mmHg 95%
    06:00 +12°C° 0 mm 3 mps 736 mmHg 95%
    07:00 +12°C° 0 mm 3 mps 737 mmHg 95%
    08:00 +14°C° 0 mm 3 mps 737 mmHg 91%
    09:00 +17°C° 0 mm 3 mps 737 mmHg 87%
    10:00 +19°C° 0 mm 4 mps 737 mmHg 83%
    11:00 +19°C° 0.1 mm 4 mps 737 mmHg 83%
    12:00 +20°C° 0.1 mm 4 mps 737 mmHg 83%
    13:00 +20°C° 0.1 mm 5 mps 737 mmHg 83%
    14:00 +20°C° 0.2 mm 5 mps 736 mmHg 86%
    15:00 +20°C° 0.2 mm 5 mps 736 mmHg 88%
    16:00 +19°C° 0.2 mm 5 mps 736 mmHg 90%
    17:00 +19°C° 0 mm 5 mps 736 mmHg 90%
    18:00 +19°C° 0 mm 5 mps 736 mmHg 91%
    19:00 +19°C° 0 mm 5 mps 736 mmHg 91%
    20:00 +19°C° 0 mm 6 mps 736 mmHg 91%
    21:00 +19°C° 0 mm 6 mps 736 mmHg 90%
    22:00 +19°C° 0 mm 6 mps 736 mmHg 90%
    23:00 +19°C° 0 mm 6 mps 736 mmHg 90%

    Day after tomorrow, 25 September, Tuesday

    Time Temperature Precipitation Wind Pressure Humidity
    00:00 +19°C° 0 mm 6 mps 736 mmHg 89%
    01:00 +19°C° 0 mm 5 mps 735 mmHg 89%
    02:00 +19°C° 0.3 mm 5 mps 735 mmHg 90%
    03:00 +19°C° 0.3 mm 5 mps 734 mmHg 91%
    04:00 +19°C° 0.3 mm 5 mps 734 mmHg 92%
    05:00 +19°C° 0.9 mm 5 mps 734 mmHg 93%
    06:00 +19°C° 0.9 mm 5 mps 734 mmHg 93%
    07:00 +19°C° 0.9 mm 5 mps 734 mmHg 94%
    08:00 +20°C° 1.2 mm 5 mps 734 mmHg 93%
    09:00 +21°C° 1.2 mm 5 mps 734 mmHg 91%
    10:00 +22°C° 1.2 mm 5 mps 734 mmHg 89%
    11:00 +22°C° 0.5 mm 5 mps 734 mmHg 89%
    12:00 +22°C° 0.5 mm 5 mps 733 mmHg 88%
    13:00 +23°C° 0.5 mm 5 mps 733 mmHg 87%
    14:00 +23°C° 0.1 mm 5 mps 733 mmHg 86%
    15:00 +25°C° 0.1 mm 5 mps 732 mmHg 84%
    16:00 +25°C° 0.1 mm 5 mps 732 mmHg 83%
    17:00 +23°C° 0.5 mm 4 mps 732 mmHg 86%
    18:00 +22°C° 0.5 mm 4 mps 732 mmHg 90%
    19:00 +22°C° 0.5 mm 3 mps 732 mmHg 93%
    20:00 +22°C° 2.1 mm 4 mps 731 mmHg 93%
    21:00 +21°C° 2.1 mm 4 mps 731 mmHg 93%
    22:00 +21°C° 2.1 mm 5 mps 731 mmHg 93%
    23:00 +21°C° 1.4 mm 5 mps 731 mmHg 93%

    26 September, Wednesday

    Time Temperature Precipitation Wind Pressure Humidity
    00:00 +21°C° 1.4 mm 5 mps 730 mmHg 94%
    01:00 +21°C° 1.4 mm 5 mps 730 mmHg 94%
    02:00 +21°C° 0.5 mm 5 mps 729 mmHg 94%
    03:00 +21°C° 0.5 mm 5 mps 729 mmHg 94%
    04:00 +21°C° 0.5 mm 5 mps 728 mmHg 94%
    05:00 +21°C° 0.2 mm 5 mps 728 mmHg 94%
    06:00 +21°C° 0.2 mm 5 mps 728 mmHg 94%
    07:00 +21°C° 0.2 mm 5 mps 728 mmHg 94%
    08:00 +21°C° 0.2 mm 5 mps 728 mmHg 93%
    09:00 +22°C° 0.2 mm 6 mps 727 mmHg 92%
    10:00 +22°C° 0.2 mm 6 mps 727 mmHg 91%
    11:00 +22°C° 0.6 mm 6 mps 727 mmHg 90%
    12:00 +22°C° 0.6 mm 6 mps 728 mmHg 89%
    13:00 +22°C° 0.6 mm 6 mps 728 mmHg 88%
    14:00 +21°C° 0.3 mm 6 mps 728 mmHg 86%
    15:00 +20°C° 0.3 mm 6 mps 729 mmHg 84%
    16:00 +19°C° 0.3 mm 6 mps 729 mmHg 82%
    17:00 +17°C° 0 mm 6 mps 730 mmHg 82%
    18:00 +15°C° 0 mm 5 mps 731 mmHg 82%
    19:00 +14°C° 0 mm 4 mps 732 mmHg 82%
    20:00 +13°C° 0 mm 3 mps 732 mmHg 83%
    21:00 +13°C° 0 mm 3 mps 733 mmHg 83%
    22:00 +13°C° 0 mm 2 mps 733 mmHg 83%
    23:00 +12°C° 0 mm 2 mps 734 mmHg 84%

    27 September, Thursday

    Time Temperature Precipitation Wind Pressure Humidity
    00:00 +12°C° 0 mm 2 mps 734 mmHg 85%
    01:00 +11°C° 0 mm 1 mps 734 mmHg 86%
    02:00 +11°C° 0 mm 1 mps 734 mmHg 86%
    03:00 +11°C° 0 mm 1 mps 734 mmHg 87%
    04:00 +10°C° 0 mm 1 mps 734 mmHg 87%
    05:00 +11°C° 0 mm 1 mps 734 mmHg 87%
    06:00 +11°C° 0 mm 1 mps 734 mmHg 86%
    07:00 +11°C° 0 mm 1 mps 734 mmHg 86%
    08:00 +12°C° 0 mm 2 mps 734 mmHg 81%
    09:00 +13°C° 0 mm 2 mps 734 mmHg 77%
    10:00 +14°C° 0 mm 2 mps 734 mmHg 73%
    11:00 +15°C° 0 mm 2 mps 734 mmHg 68%
    12:00 +16°C° 0 mm 1 mps 734 mmHg 63%
    13:00 +18°C° 0 mm 1 mps 733 mmHg 59%
    14:00 +19°C° 0 mm 1 mps 733 mmHg 57%
    15:00 +17°C° 0 mm 0 mps 733 mmHg 56%
    16:00 +18°C° 0 mm 0 mps 733 mmHg 54%
    17:00 +16°C° 0 mm 0 mps 733 mmHg 60%
    18:00 +14°C° 0 mm 0 mps 733 mmHg 66%
    19:00 +12°C° 0 mm 0 mps 733 mmHg 72%
    20:00 +13°C° 0 mm 1 mps 733 mmHg 74%
    21:00 +13°C° 0 mm 1 mps 733 mmHg 76%
    22:00 +12°C° 0 mm 1 mps 733 mmHg 78%
    23:00 +12°C° 0 mm 1 mps 732 mmHg 79%

    28 September, Friday

    Time Temperature Precipitation Wind Pressure Humidity
    00:00 +12°C° 0 mm 2 mps 732 mmHg 81%
    01:00 +10°C° 0 mm 2 mps 732 mmHg 83%
    02:00 +10°C° 0 mm 2 mps 732 mmHg 83%
    03:00 +10°C° 0 mm 2 mps 732 mmHg 83%
    04:00 +10°C° 0 mm 2 mps 732 mmHg 84%
    05:00 +10°C° 0 mm 2 mps 732 mmHg 84%
    06:00 +12°C° 0 mm 2 mps 733 mmHg 84%
    07:00 +11°C° 0 mm 3 mps 733 mmHg 84%
    08:00 +13°C° 0 mm 3 mps 733 mmHg 80%
    09:00 +14°C° 0 mm 4 mps 733 mmHg 77%
    10:00 +17°C° 0 mm 4 mps 733 mmHg 73%
    11:00 +16°C° 0.1 mm 5 mps 733 mmHg 73%
    12:00 +16°C° 0.1 mm 5 mps 733 mmHg 74%
    13:00 +16°C° 0.1 mm 5 mps 733 mmHg 75%
    14:00 +16°C° 0.1 mm 5 mps 733 mmHg 74%
    15:00 +16°C° 0.1 mm 5 mps 733 mmHg 74%
    16:00 +16°C° 0.1 mm 5 mps 733 mmHg 73%
    17:00 +15°C° 0 mm 5 mps 734 mmHg 76%
    18:00 +13°C° 0 mm 4 mps 734 mmHg 78%
    19:00 +12°C° 0 mm 3 mps 735 mmHg 81%
    20:00 +12°C° 0 mm 3 mps 735 mmHg 80%
    21:00 +11°C° 0 mm 3 mps 736 mmHg 79%
    22:00 +10°C° 0 mm 3 mps 736 mmHg 78%
    23:00 +10°C° 0 mm 3 mps 736 mmHg 76%
    Show more